CUBESX-HSE 3 (RS42S)

Last updated on Mon Nov 03 2025 00:03:22 GMT+0000 (Coordinated Universal Time)

1 57178U 23091N 25306.52402001 .00014088 00000+0 57812-3 0 9999 2 57178 97.5440 4.9327 0012907 166.7208 193.4372 15.24268467129818
UTC large
Height (km)
Speed (km/s)
/
Latitude / Longitude
Inclination (degrees)
Orbital Period (minutes)
Azimuth
Elevation
Range (km)
Doppler Factor

Next 0 passes for location: London (51.5072 / 0.1276)

Sorry there are no passes over London.